CAPE
0 0 0 0 0 0 0 0 0 402 429 550 502 445 397 344 580 305 347 638 677 612 258 153 224 232 245 280 245 296 369 387 350 248 129 0 0 0 0 0 0 0 0 0 0 0 0 0 0
0 0 0 0 0 0 0 1 0 543 328 224 180 211 99 263 585 765 600 649 713 700 290 204 249 269 340 320 358 407 483 432 310 156 44 0 0 0 0 0 0 0 0 0 0 0 0 0 0
0 0 0 0 0 0 13 0 492 410 294 185 10 0 0 34 393 642 573 612 813 671 466 347 278 261 274 344 420 526 535 409 226 116 38 0 0 0 0 0 0 0 0 0 0 0 0 0 0
0 0 0 0 0 7 0 244 318 236 151 134 103 9 0 0 39 425 885 639 693 675 746 314 328 293 296 363 492 460 523 299 210 101 24 0 0 0 0 0 0 0 0 0 0 0 0 0 0
0 0 0 0 1 23 0 193 216 184 25 46 79 0 0 0 62 426 672 692 470 435 516 404 358 360 366 417 471 526 493 290 168 113 21 0 0 0 0 0 0 0 0 0 0 0 0 0 0
0 0 0 0 23 0 0 212 385 17 3 14 156 24 126 319 370 444 446 16 39 410 727 555 325 417 390 538 556 575 474 237 127 16 0 0 0 0 0 0 0 0 0 0 0 0 0 0 0
0 0 0 7 5 28 5 450 135 13 0 11 114 228 777 745 871 836 84 0 0 263 731 765 574 452 547 663 589 511 308 96 45 0 0 0 0 0 0 0 0 0 0 0 0 0 0 0 0
0 0 0 12 32 51 171 91 160 27 69 0 112 405 660 992 1356 948 545 326 428 278 855 764 671 755 834 785 574 343 151 32 1 0 0 0 0 0 0 0 0 0 0 0 0 0 0 0 0
0 0 0 19 154 336 7 0 3 11 40 99 528 598 935 1337 1317 1056 808 726 795 824 885 822 754 671 645 807 575 233 23 0 0 10 0 18 68 73 36 0 0 0 0 0 0 0 0 0 2
0 0 6 45 33 83 54 19 1 0 8 228 693 1027 1320 1354 1174 1135 1097 1028 900 833 838 654 733 744 633 396 371 201 11 54 144 364 210 128 287 273 7 6 0 0 0 1 0 0 0 0 0
0 0 0 15 8 40 1 0 1 1 53 324 936 1141 1275 1203 1073 1104 909 768 632 875 858 855 1067 1045 396 248 130 30 45 210 482 534 490 462 373 486 309 189 227 201 44 117 44 31 5 5 0
0 0 0 102 0 0 0 7 63 0 0 31 907 1150 953 1310 1256 858 365 274 357 484 783 830 837 835 368 162 65 42 205 369 389 592 661 666 497 482 345 191 214 223 135 53 39 36 4 0 0
0 0 0 0 27 10 14 8 0 118 199 568 1307 1054 819 926 612 277 222 227 279 330 488 543 564 441 356 99 178 461 500 600 685 754 528 513 598 458 267 197 182 92 40 38 15 6 0 0 0
0 0 0 0 0 17 33 36 0 65 178 486 625 282 277 321 253 178 172 214 209 256 478 488 408 340 187 291 525 343 84 51 35 114 248 367 281 166 11 30 67 4 5 1 0 0 0 0 0
0 0 0 0 0 23 13 0 1 163 259 305 296 276 299 270 193 126 94 181 288 443 662 578 519 357 278 538 194 9 0 1 0 37 127 163 187 21 0 1 0 0 0 0 0 0 0 0 0
0 0 2 3 14 19 12 0 5 103 294 345 414 485 512 422 306 202 213 144 275 620 1046 864 508 481 581 324 23 0 1 0 0 0 0 0 0 0 0 0 0 0 0 0 0 0 0 0 0
0 0 0 0 0 6 0 0 42 90 279 433 512 669 606 472 443 454 417 312 230 537 1087 1082 807 768 490 191 34 146 40 0 0 0 0 0 0 0 0 0 0 0 0 0 0 0 0 0 0
0 0 1 3 0 0 0 0 12 111 154 405 463 587 590 545 549 611 595 489 453 653 1203 1294 1133 871 405 262 244 196 53 1 0 0 0 0 0 0 0 0 0 0 0 0 0 0 0 0 0
0 0 0 0 0 0 0 2 0 141 160 184 300 473 545 595 640 662 759 931 925 1059 1233 934 850 657 602 584 336 15 0 0 0 0 0 0 0 0 0 0 0 0 0 0 0 0 0 0 0
0 0 0 0 0 6 0 30 9 92 159 260 286 317 379 563 595 800 967 1123 1153 1158 1133 926 874 783 688 277 17 2 7 3 0 0 0 0 0 0 0 0 0 0 0 0 0 0 0 0 0
1 0 7 14 26 33 62 103 99 55 155 345 419 436 454 625 714 947 1152 1218 1115 1051 999 911 695 507 156 6 0 11 1 0 0 0 0 0 0 0 0 0 0 0 0 0 0 0 0 0 0
4 24 11 36 83 44 17 27 30 96 73 104 243 425 546 586 733 998 1049 950 767 619 403 170 24 1 0 0 0 0 8 6 0 0 0 0 0 0 0 0 0 0 0 0 0 0 0 0 0
139 56 90 89 36 13 42 20 19 175 145 110 160 249 369 554 721 459 246 104 10 0 0 0 0 0 0 0 0 0 0 0 0 0 0 0 0 0 0 0 0 0 0 0 0 2 2 5 7
76 121 124 103 88 76 9 35 143 236 194 187 255 372 421 409 171 6 0 0 0 0 0 0 0 0 0 0 0 0 0 0 0 0 0 0 0 0 0 0 0 0 0 0 3 6 10 15 4
75 110 56 23 42 41 79 64 26 38 83 172 306 312 267 111 0 0 0 0 0 0 0 0 0 0 0 0 0 0 0 0 0 0 0 0 0 0 0 0 0 0 0 2 4 8 12 27 1
77 72 53 12 41 42 98 19 52 82 22 74 301 207 137 2 0 0 0 0 0 0 0 0 0 0 0 0 0 0 0 0 0 0 0 0 0 0 0 0 0 0 2 10 15 17 20 8 5
57 20 49 97 82 32 0 3 43 44 16 57 263 165 44 0 0 0 0 0 0 0 0 0 0 0 0 0 0 0 0 0 0 0 0 0 0 0 0 0 0 2 12 17 24 23 24 18 17
6 19 6 0 0 0 15 9 0 61 11 12 210 127 17 0 0 0 0 0 0 0 0 0 0 0 0 0 0 0 0 0 0 0 0 0 0 0 0 0 0 0 27 16 22 18 29 23 7
0 0 0 9 26 0 0 1 0 0 0 2 58 120 24 0 0 0 0 0 0 0 0 0 0 0 0 0 0 0 0 0 0 0 0 0 0 0 0 0 0 0 10 22 30 16 30 39 4
1 12 0 0 0 0 0 0 0 0 0 0 4 32 21 1 0 0 0 0 0 0 0 0 0 0 0 0 0 0 0 0 0 0 0 0 0 0 0 0 0 4 10 7 23 30 29 20 18
CIN
0 0 0 0 0 0 0 0 0 -14 -17 -6 -6 -1 -9 -28 -11 -8 -9 -9 -15 -1 -33 -101 -83 -95 -116 -89 -97 -87 -64 -53 -54 -89 -141 0 0 0 0 0 0 0 0 0 0 0 0 0 0
0 0 0 0 0 0 0 -8 0 -21 -61 -31 -40 -37 -35 -5 -3 -5 -3 -2 -2 -1 -48 -77 -96 -70 -83 -70 -68 -56 -39 -44 -76 -136 -188 0 0 0 0 0 0 0 0 0 0 0 0 0 0
0 0 0 0 0 0 -11 0 -9 -9 -19 -54 -105 0 0 -15 0 -2 -1 -1 -1 0 -5 -66 -115 -93 -65 -55 -49 -36 -26 -41 -77 -126 -168 0 0 0 0 0 0 0 0 0 0 0 0 0 0
0 0 0 0 0 -6 0 -4 -33 -4 -12 -3 -19 -74 0 0 -42 -1 -1 -5 -4 -2 -1 -96 -99 -70 -58 -41 -30 -29 -24 -49 -66 -108 -162 0 0 0 0 0 0 0 0 0 0 0 0 0 0
0 0 0 0 -1 -9 0 -16 -9 -64 -18 -30 -10 0 0 0 -136 -9 -1 -2 -6 -6 -37 -65 -38 -64 -31 -21 -22 -22 -23 -47 -79 -99 -157 0 0 0 0 0 0 0 0 0 0 0 0 0 0
0 0 0 0 -9 0 0 -19 -5 -31 -6 -4 -6 -45 -30 -17 -8 -16 -14 -65 -56 -5 -13 -22 -62 -34 -16 -13 -20 -18 -23 -54 -92 -95 0 0 0 0 0 0 0 0 0 0 0 0 0 0 0
0 0 0 -9 -39 -4 -9 -16 -241 -63 0 -2 -44 -2 -4 -14 -2 -11 -32 0 0 -8 -11 -3 -3 -13 -10 -11 -17 -20 -43 -105 -164 0 0 0 0 0 0 0 0 0 0 0 0 0 0 0 0
0 0 0 -4 -11 -81 -4 -20 -46 -28 -31 0 -20 -2 -5 0 -1 -1 -4 -5 -5 -5 -3 -2 -4 -1 -17 0 -15 -37 -96 -179 -281 0 0 0 0 0 0 0 0 0 0 0 0 0 0 0 0
0 0 0 -6 -11 -4 -3 0 -12 -77 -46 -47 -3 -2 -19 -3 -3 -1 -1 -1 0 -4 -6 -1 -1 -4 -2 -1 -20 -74 -205 0 0 -44 0 -26 -29 -23 -39 0 0 0 0 0 0 0 0 0 -10
0 0 -7 -14 -98 -18 -7 -6 -7 0 -34 -25 -4 -1 -1 -1 -1 -1 -1 -1 -1 0 -2 -2 -26 0 -1 -10 -12 -33 -130 -64 -22 -2 -12 -7 -4 -4 -21 -33 0 0 0 -13 0 0 0 0 0
0 0 -9 -24 -10 -9 -8 0 -4 -12 -63 -5 0 -3 -1 0 -1 0 0 -2 0 -1 -1 -25 -11 -17 -4 -33 -40 -88 -68 -4 -1 -1 -1 -2 -2 -1 -2 -2 -3 -2 -23 -2 -7 -2 -11 -48 0
0 0 -1 -15 0 0 0 -3 -5 -3 0 -202 -1 -1 -1 0 -1 0 -2 -2 -5 -9 -6 0 -2 -3 -16 -42 -23 -53 -1 -1 -1 -2 -1 0 -1 0 -2 -1 -1 -1 -1 -4 -3 -1 -18 0 0
0 0 0 -13 -6 -2 -13 -15 0 -12 -11 -1 -2 -12 -1 -1 -1 -4 -2 -3 -10 -11 -7 -32 -26 -13 -18 -38 -15 -1 -1 -16 -12 -24 -53 -50 -6 -17 -40 -48 -9 -1 -1 -1 -2 -3 0 0 0
0 0 0 0 0 -2 -5 -3 0 -10 -3 -1 -3 -7 -3 -5 -1 -1 -1 -2 -11 -16 -13 -20 -21 -43 -69 -26 -2 -34 -58 -75 -127 -137 -59 -28 -33 -54 -98 -94 -12 -40 -30 -10 0 0 0 0 0
0 0 0 0 0 -11 -17 0 -17 -17 -3 -4 -2 -3 -2 -2 -1 -15 -29 -30 -3 -3 -4 -26 -43 -75 -69 -26 -112 -158 0 -46 -14 -122 -63 -50 -26 -105 -7 -4 0 0 0 0 0 0 0 0 0
0 0 -7 -8 -4 -12 -2 0 -46 -27 -3 -1 -3 -2 -5 -3 -3 -12 -26 -51 -31 -3 -2 -15 -64 -58 -38 -96 -198 0 -29 0 0 0 0 0 0 0 0 0 0 0 0 0 0 0 0 0 0
0 0 0 0 0 -14 0 0 -38 -28 -3 -3 -1 -2 -2 -15 -22 -40 -46 -36 -42 -6 -1 -13 -32 -22 -59 -107 -171 -82 -88 0 0 0 0 0 0 0 0 0 0 0 0 0 0 0 0 0 0
0 -1 -11 -5 0 0 0 -1 -32 -19 -7 -2 -4 -3 -6 -28 -25 -39 -47 -37 -22 -2 -2 -4 -6 -22 -73 -84 -58 -44 -46 -23 0 0 0 0 0 0 0 0 0 0 0 0 0 0 0 0 0
-21 0 0 0 0 0 0 -1 0 -21 -12 -10 0 -2 -3 -4 -41 -73 -68 -62 -32 -16 -4 -80 -42 -34 -17 -3 -7 -76 0 0 0 0 0 0 0 0 0 0 0 0 0 0 0 0 0 0 0
0 0 -11 0 0 -1 0 -2 -17 -25 -15 -8 -11 -10 -6 -4 -72 -65 -63 -49 -30 -20 -7 -51 -25 -5 -1 -5 -47 0 -1 -18 0 0 0 0 0 0 0 0 0 0 0 0 0 0 0 0 0
-4 0 -26 -9 -27 -31 -6 -7 -18 -37 -26 -33 -21 -11 -8 -20 -40 -44 -25 -13 -17 -9 -12 -9 -16 -14 -24 -63 0 -22 -1 0 0 0 0 0 0 0 0 0 0 0 0 0 0 0 0 0 0
-6 -12 -6 -5 -6 -7 -10 -6 -9 -45 -80 -82 -79 -46 -41 -46 -44 -27 -14 -16 -21 -28 -36 -52 -87 -19 0 0 0 0 -4 -2 0 0 0 0 0 0 0 0 0 0 0 0 0 0 0 0 0
-16 -22 -5 -1 -6 -115 -7 -7 -91 -8 -42 -82 -109 -101 -102 -83 -53 -86 -113 -154 -177 0 0 0 0 0 0 0 0 0 0 0 0 0 0 0 0 0 0 0 0 0 0 0 0 -1 -1 -1 -2
-42 -16 -9 -2 -6 -3 -12 -37 -15 -6 -20 -56 -94 -104 -100 -96 -144 -73 0 0 0 0 0 0 0 0 0 0 0 0 0 0 0 0 0 0 0 0 0 0 0 0 0 0 -1 -1 -1 -3 -8
-14 -4 -6 -10 -11 -7 -10 -7 -13 -4 -12 -7 -76 -99 -107 -151 0 0 0 0 0 0 0 0 0 0 0 0 0 0 0 0 0 0 0 0 0 0 0 0 0 0 0 -1 -1 -4 -4 -3 -1
-8 -4 -4 -4 -3 -6 -9 -7 -5 -30 -37 -49 -36 -91 -132 -60 0 0 0 0 0 0 0 0 0 0 0 0 0 0 0 0 0 0 0 0 0 0 0 0 0 0 -1 -5 -9 -3 -2 -4 -4
-4 -20 -8 -6 -22 -18 -18 -4 -13 -98 -122 -96 -47 -102 -193 0 0 0 0 0 0 0 0 0 0 0 0 0 0 0 0 0 0 0 0 0 0 0 0 0 0 -1 0 -10 -1 -3 -3 -10 -2
-13 -6 -23 0 0 0 -7 -2 0 -44 -116 -157 -64 -120 -207 0 0 0 0 0 0 0 0 0 0 0 0 0 0 0 0 0 0 0 0 0 0 0 0 0 0 0 -4 -2 -1 -2 -2 -5 -5
-2 0 0 -1 -12 0 0 -4 0 0 0 -139 -114 -104 -172 0 0 0 0 0 0 0 0 0 0 0 0 0 0 0 0 0 0 0 0 0 0 0 0 0 0 0 -1 -1 -2 -1 -3 -2 -3
0 -2 0 0 0 0 0 0 0 0 0 0 -157 -118 -136 -24 0 0 0 0 0 0 0 0 0 0 0 0 0 0 0 0 0 0 0 0 0 0 0 0 -1 -2 -1 -2 -1 -1 -2 -5 -3
Wind_Speed
17 18 19 19 18 17 26 23 18 15 17 17 17 16 15 19 23 15 6 5 8 9 9 8 7 8 10 10 12 14 15 15 14 14 12 12 13 14 16 18 20 21 23 24 25 25 26 27 27
14 16 17 19 22 24 20 11 15 11 8 9 15 14 15 16 13 6 4 2 8 8 9 7 5 5 9 10 11 12 13 13 13 13 11 11 13 14 16 18 20 21 23 24 24 25 26 28 28
19 17 18 16 23 27 27 18 9 8 7 14 14 16 17 16 12 6 3 3 5 7 9 9 6 4 7 9 10 11 11 12 11 11 10 11 12 14 16 18 20 21 23 24 24 25 26 28 28
13 12 18 23 28 20 23 15 8 7 7 10 11 16 16 16 13 8 1 2 2 5 6 8 5 6 8 8 9 10 10 10 10 9 11 12 13 15 17 18 20 21 22 23 24 25 26 27 28
22 20 18 20 25 25 19 11 7 17 17 8 10 14 14 13 10 6 3 3 3 3 4 8 6 1 4 7 8 9 10 10 9 10 11 12 13 15 17 18 19 20 22 23 23 24 25 26 27
14 20 22 22 18 14 17 7 7 9 18 18 17 8 10 10 7 8 2 2 3 4 4 3 5 4 6 8 9 9 9 9 10 11 12 12 14 15 16 17 18 20 21 22 23 24 25 26 28
23 14 28 29 16 12 10 8 6 10 14 20 10 8 13 10 9 7 3 8 15 24 9 9 4 8 9 9 9 9 10 10 11 11 11 13 13 15 15 16 17 19 20 21 23 23 25 26 27
26 29 32 25 20 23 4 11 12 11 9 21 18 17 13 7 6 7 5 4 15 1 13 12 14 12 12 10 10 10 10 11 11 12 12 13 14 15 15 16 17 19 20 21 23 23 25 26 24
26 23 28 18 9 10 10 9 12 12 18 15 11 14 9 7 13 6 7 8 6 9 12 14 14 14 14 12 10 11 12 12 13 13 13 13 12 14 14 17 18 19 20 21 22 24 25 24 20
21 21 25 15 11 8 6 14 15 12 14 14 10 10 13 16 16 10 12 11 13 15 15 13 13 12 9 10 12 12 13 13 12 12 12 12 14 16 16 16 17 18 20 20 21 22 23 21 29
25 26 18 8 10 8 10 13 4 13 20 6 5 12 11 14 17 16 15 13 16 13 11 11 10 9 11 12 13 13 12 12 12 13 14 15 16 17 18 18 17 20 19 21 23 24 27 30 30
25 24 20 11 8 9 9 9 10 15 13 26 16 17 19 19 16 15 19 18 16 17 13 10 10 12 10 12 12 12 13 13 13 14 14 15 14 17 19 20 24 21 21 24 24 26 28 29 31
21 13 17 17 12 7 20 13 7 11 18 19 21 22 20 18 17 15 13 16 16 17 15 12 12 13 13 13 13 14 14 15 16 16 17 16 16 20 18 24 27 25 23 27 26 28 33 35 33
15 20 15 8 8 11 13 8 13 12 15 20 22 23 20 18 15 13 15 17 17 15 14 14 14 13 14 14 14 13 15 16 17 17 17 17 17 20 24 21 14 19 23 26 29 32 32 34 33
17 17 5 7 11 12 13 9 11 12 18 16 18 19 17 16 15 13 12 13 14 13 13 13 12 13 12 12 12 11 16 13 23 20 21 17 14 17 21 20 20 22 27 29 31 32 33 34 34
21 19 2 4 11 11 14 8 10 16 18 20 19 17 13 12 12 11 10 12 12 12 12 11 11 10 10 10 10 11 16 12 17 16 17 17 16 15 17 18 19 23 25 28 31 32 33 35 36
22 16 8 5 13 8 14 6 10 15 17 16 13 12 13 13 10 9 11 10 12 11 9 8 8 8 8 9 11 13 13 15 15 15 15 15 16 16 16 18 20 23 24 27 29 32 35 37 39
16 21 4 5 5 10 7 8 8 13 14 14 15 14 11 11 12 11 11 9 7 6 6 6 6 7 7 9 11 13 14 13 13 15 16 16 17 18 19 20 23 27 29 31 33 34 34 36 36
9 9 4 6 7 5 4 7 8 9 11 12 12 11 10 11 10 9 8 8 8 7 6 7 7 6 7 9 11 12 12 13 14 15 16 17 19 20 22 23 26 28 29 32 33 34 36 36 36
18 15 5 9 7 20 5 4 6 8 12 11 12 11 10 8 7 5 5 6 6 7 6 7 7 6 7 9 10 11 12 13 14 15 17 19 21 22 23 25 28 30 32 34 35 35 36 35 35
17 16 5 7 6 26 5 1 4 5 7 9 9 7 6 4 4 4 5 6 6 6 7 8 8 8 9 10 12 13 13 13 13 15 16 20 23 25 26 29 30 33 34 35 36 34 33 35 34
21 12 15 16 12 9 22 23 16 9 7 6 5 3 2 2 2 3 5 6 7 8 9 10 10 10 10 9 11 11 13 14 18 19 19 22 24 27 29 30 32 33 33 34 33 32 31 33 35
13 13 17 20 26 17 11 28 10 17 2 2 1 0 0 0 2 3 5 6 8 8 9 9 10 11 11 12 12 13 15 15 17 19 22 24 27 31 32 33 35 34 33 32 32 31 31 31 34
15 15 19 24 27 28 30 14 4 2 5 2 1 2 1 1 2 4 5 5 6 7 8 9 9 10 11 13 15 15 16 18 20 22 26 28 29 30 32 33 34 33 32 31 30 30 30 33 35
21 23 26 25 28 30 22 27 32 21 12 6 4 3 3 3 4 4 5 5 5 5 6 7 8 9 11 12 14 16 18 21 24 24 27 29 30 31 32 34 34 34 32 30 29 31 31 32 30
25 28 29 25 25 28 14 23 23 20 18 19 2 3 3 5 6 6 5 4 3 4 4 5 6 8 10 12 15 17 21 23 23 24 28 29 31 32 34 34 34 33 31 30 28 30 30 30 30
20 28 25 25 24 29 32 30 8 13 11 8 2 6 8 9 7 6 5 2 2 2 2 3 5 7 9 13 16 19 20 23 22 25 27 29 31 33 33 34 34 31 30 27 29 28 28 27 26
26 18 20 19 25 27 22 24 25 14 14 6 5 8 7 6 5 5 3 2 1 0 1 3 4 7 11 14 17 19 21 22 23 24 28 30 31 32 33 34 33 32 28 26 29 28 30 31 25
14 28 23 23 22 24 22 13 15 20 16 8 1 4 5 5 5 4 3 3 3 2 3 3 5 9 13 15 18 19 21 21 24 26 28 30 32 33 33 33 33 31 30 29 28 31 30 26 22
25 26 22 27 24 21 22 26 15 13 15 11 6 0 3 5 5 4 5 5 5 5 5 6 8 11 13 17 18 18 19 22 25 26 28 30 32 32 33 32 31 30 30 29 29 30 27 19 22
Wind_Direction
287 287 288 293 295 298 289 291 301 314 308 319 320 314 310 307 295 282 11 41 108 131 133 132 116 95 89 79 70 63 58 51 38 20 1 355 3 7 13 20 25 28 28 27 25 25 26 23 20
289 288 290 291 285 286 297 294 311 331 344 349 334 325 324 315 327 341 32 81 121 137 141 138 125 97 89 82 65 58 50 40 23 12 356 358 4 10 15 19 18 20 22 25 27 28 26 26 23
272 278 288 292 281 281 287 320 336 352 337 319 320 324 310 314 326 341 359 124 126 141 141 128 130 120 86 71 58 45 34 23 11 2 356 359 2 10 13 14 17 20 21 22 26 28 26 24 21
288 294 289 281 272 296 291 336 344 329 342 324 319 316 313 310 306 324 34 94 176 155 150 130 138 104 86 68 50 37 18 11 360 357 357 0 8 16 17 20 22 23 28 30 30 29 30 27 23
264 276 286 283 280 287 302 323 318 321 283 10 331 317 324 317 298 318 55 298 274 212 178 117 109 95 52 48 29 23 10 358 357 352 0 12 13 13 17 21 23 25 26 26 27 26 30 24 21
282 278 279 280 291 303 300 314 327 337 334 323 318 356 334 342 338 285 323 318 268 230 186 152 92 66 48 32 32 21 4 0 1 3 5 12 18 22 19 19 20 23 24 24 21 18 18 14 9
264 283 262 268 300 308 308 340 16 318 309 296 311 6 312 316 356 17 352 77 122 160 117 93 67 71 53 37 31 18 17 16 8 7 14 19 19 17 18 19 17 14 14 15 12 7 5 4 0
255 266 257 279 286 282 323 324 317 314 321 303 289 309 311 347 340 49 52 32 208 273 69 84 92 83 70 49 36 36 31 24 23 22 23 26 31 28 23 19 8 2 2 8 0 360 357 357 3
242 267 261 283 297 295 15 10 330 315 285 294 259 340 25 53 84 51 51 56 42 43 65 81 85 73 78 62 46 47 44 48 58 53 48 50 43 26 22 10 3 358 355 356 355 353 350 358 1
252 263 264 305 318 108 354 301 301 324 283 293 11 10 64 88 91 76 74 65 71 73 71 58 58 58 43 44 62 47 60 56 46 36 35 30 13 7 3 6 1 356 352 351 355 354 354 357 345
241 247 280 310 346 0 319 308 356 306 282 320 347 78 77 83 88 90 85 76 81 62 46 52 50 44 56 53 59 59 50 44 33 21 4 3 356 357 353 354 354 350 351 347 348 346 341 341 339
245 260 266 290 342 350 356 49 107 352 109 197 93 95 97 95 88 85 99 96 88 96 74 53 54 66 31 51 53 42 43 41 23 14 11 360 357 353 347 344 334 344 347 340 347 343 340 339 334
251 277 264 271 302 345 236 311 339 17 61 72 90 99 99 96 99 92 83 90 92 101 91 77 74 76 69 64 53 44 31 9 4 5 358 356 350 342 351 338 321 332 344 333 339 338 329 327 330
261 254 267 311 305 278 277 345 13 356 47 79 97 104 101 99 90 86 91 96 100 93 89 88 87 80 82 68 61 48 23 9 5 359 3 354 336 333 335 341 343 342 342 336 333 331 331 328 331
256 249 290 57 96 109 223 325 349 39 80 83 94 98 95 94 91 86 84 92 97 93 88 90 81 79 75 65 55 42 13 6 322 353 352 5 360 352 342 342 341 335 326 325 327 330 331 330 329
234 242 268 58 92 74 139 323 38 88 93 101 96 94 86 80 84 77 77 94 94 97 95 89 80 73 64 59 43 23 3 9 4 6 9 13 15 11 357 346 345 338 335 333 332 332 331 329 328
228 248 299 314 125 74 137 38 61 100 104 98 93 92 91 95 80 70 91 85 108 101 94 82 74 65 53 45 20 9 14 13 15 18 26 25 24 19 9 1 354 347 342 339 337 334 331 328 324
253 239 38 8 56 106 60 35 69 109 112 111 115 110 97 98 99 91 86 71 68 62 68 52 49 37 35 15 11 10 15 26 32 25 24 27 21 12 1 354 345 341 337 335 333 331 331 329 327
116 317 4 44 356 330 22 46 98 104 118 124 127 121 116 112 98 89 67 52 43 39 46 27 17 31 27 15 11 17 27 30 29 31 25 16 6 1 355 350 345 342 339 336 334 331 329 329 328
265 275 348 356 23 249 302 9 320 114 136 133 141 140 136 116 101 65 41 18 14 14 17 29 27 35 32 28 32 31 32 36 34 22 11 5 2 359 354 348 343 340 336 333 331 329 328 328 328
273 271 334 1 351 208 288 35 301 88 114 134 143 142 137 119 100 33 23 22 26 39 49 60 60 50 31 32 28 27 28 25 18 12 8 1 358 353 349 344 340 336 334 332 331 330 330 328 329
267 307 280 285 313 146 175 195 163 133 130 131 141 137 137 120 23 31 29 41 48 57 57 60 59 42 37 41 32 28 15 11 6 5 1 351 349 346 343 341 339 337 335 333 333 334 332 330 328
302 314 276 265 227 292 281 231 306 259 176 145 115 120 308 42 91 68 77 70 65 60 60 53 49 38 34 23 21 14 7 7 4 0 353 348 345 341 340 340 339 336 335 334 333 332 332 331 329
315 286 270 253 237 248 234 253 303 130 291 259 266 279 257 149 122 104 86 75 65 55 54 57 49 34 26 20 14 11 5 359 353 349 347 346 344 344 342 342 340 337 335 335 334 333 332 333 330
257 245 226 228 237 250 282 268 253 285 333 303 244 235 211 183 151 135 122 106 77 67 61 53 44 32 24 17 12 6 0 355 350 347 347 345 345 344 343 342 341 339 337 336 336 336 332 330 330
244 236 236 265 266 258 311 297 298 302 314 308 239 199 175 166 154 148 141 118 86 60 65 50 40 23 15 10 4 357 351 348 348 347 347 346 345 344 342 342 341 341 341 342 339 336 334 333 332
268 247 269 271 284 275 261 247 347 340 338 334 156 156 158 158 158 159 154 141 114 78 47 36 20 13 7 360 353 347 348 348 348 345 346 347 346 344 344 343 341 342 343 341 339 337 336 330 330
256 289 287 291 276 250 263 251 268 336 328 350 133 153 159 167 173 172 181 200 236 256 3 1 355 353 349 347 345 344 345 345 346 347 346 347 346 344 344 343 343 342 341 338 339 336 334 333 330
301 253 273 272 271 244 241 289 323 316 324 350 49 163 176 188 194 194 226 244 246 262 297 314 328 333 335 339 339 340 341 343 343 344 346 346 344 344 343 343 343 343 342 339 336 335 335 329 327
266 256 270 240 258 282 284 247 337 351 348 357 359 293 219 214 213 235 251 254 258 265 274 294 314 322 328 333 334 336 339 340 340 342 343 343 343 343 343 344 344 343 342 340 336 337 340 335 332